Time,TemperatureF,DewpointF,PressureIn,WindDirection,WindDirectionDegrees,WindSpeedMPH,WindSpeedGustMPH,Humidity,HourlyPrecipIn,Conditions,Clouds,dailyrainin,SoftwareType,DateUTC
2013-05-09 00:00:00,53.5,52.7,30.16,NE,40,2.0,2.0,97,0.00,,,0.00,Wunderground v.1.15,2013-05-09 04:00:00,
2013-05-09 00:05:00,53.5,52.7,30.17,ENE,59,1.0,4.0,97,0.00,,,0.00,Wunderground v.1.15,2013-05-09 04:05:00,
2013-05-09 00:10:00,53.5,52.7,30.16,East,95,1.0,4.0,97,0.00,,,0.00,Wunderground v.1.15,2013-05-09 04:10:00,
2013-05-09 00:15:00,53.5,52.7,30.16,East,95,1.0,4.0,97,0.00,,,0.00,Wunderground v.1.15,2013-05-09 04:15:00,
2013-05-09 00:20:00,53.4,52.6,30.16,East,94,0.0,4.0,97,0.00,,,0.00,Wunderground v.1.15,2013-05-09 04:20:00,
2013-05-09 00:25:00,53.4,52.6,30.15,ESE,107,1.0,4.0,97,0.00,,,0.00,Wunderground v.1.15,2013-05-09 04:25:00,
2013-05-09 00:30:00,53.4,52.6,30.15,SE,142,1.0,4.0,97,0.00,,,0.00,Wunderground v.1.15,2013-05-09 04:30:00,
2013-05-09 00:35:00,53.4,52.6,30.15,ENE,68,2.0,4.0,97,0.00,,,0.00,Wunderground v.1.15,2013-05-09 04:35:00,
2013-05-09 00:40:00,53.4,52.6,30.15,ENE,75,2.0,2.0,97,0.00,,,0.00,Wunderground v.1.15,2013-05-09 04:40:00,
2013-05-09 00:45:00,53.4,52.6,30.15,ESE,104,1.0,4.0,97,0.00,,,0.00,Wunderground v.1.15,2013-05-09 04:45:00,
2013-05-09 00:55:00,53.4,52.6,30.14,East,96,1.0,4.0,97,0.00,,,0.00,Wunderground v.1.15,2013-05-09 04:55:00,
2013-05-09 01:00:00,53.4,52.8,30.14,East,96,1.0,1.0,98,0.00,,,0.00,Wunderground v.1.15,2013-05-09 05:00:00,
2013-05-09 01:05:00,53.3,52.8,30.14,East,94,1.0,4.0,98,0.00,,,0.00,Wunderground v.1.15,2013-05-09 05:05:00,
2013-05-09 01:10:00,53.3,52.8,30.14,East,81,1.0,1.0,98,0.00,,,0.00,Wunderground v.1.15,2013-05-09 05:10:00,
2013-05-09 01:15:00,53.3,52.5,30.14,East,81,0.0,4.0,97,0.00,,,0.00,Wunderground v.1.15,2013-05-09 05:15:00,
2013-05-09 01:25:00,53.2,52.4,30.14,SE,127,1.0,4.0,97,0.00,,,0.00,Wunderground v.1.15,2013-05-09 05:25:00,
2013-05-09 01:30:00,53.1,52.3,30.14,ESE,111,1.0,4.0,97,0.00,,,0.00,Wunderground v.1.15,2013-05-09 05:30:00,
2013-05-09 01:35:00,53.1,52.3,30.14,SSE,153,1.0,4.0,97,0.00,,,0.00,Wunderground v.1.15,2013-05-09 05:35:00,
2013-05-09 01:45:00,53.0,52.2,30.13,ESE,113,1.0,4.0,97,0.00,,,0.00,Wunderground v.1.15,2013-05-09 05:45:00,
2013-05-09 01:50:00,53.0,52.2,30.13,SSE,154,0.0,4.0,97,0.00,,,0.00,Wunderground v.1.15,2013-05-09 05:50:00,
2013-05-09 01:55:00,52.9,52.4,30.13,ESE,102,0.0,4.0,98,0.00,,,0.00,Wunderground v.1.15,2013-05-09 05:55:00,
2013-05-09 02:05:00,53.0,52.5,30.12,East,80,1.0,4.0,98,0.00,,,0.00,Wunderground v.1.15,2013-05-09 06:05:00,
2013-05-09 02:10:00,53.0,52.5,30.12,East,83,0.0,4.0,98,0.00,,,0.00,Wunderground v.1.15,2013-05-09 06:10:00,
2013-05-09 02:15:00,52.9,52.4,30.11,South,174,0.0,4.0,98,0.00,,,0.00,Wunderground v.1.15,2013-05-09 06:15:00,
2013-05-09 02:20:00,52.8,52.3,30.12,South,174,0.0,4.0,98,0.00,,,0.00,Wunderground v.1.15,2013-05-09 06:20:00,
2013-05-09 02:25:00,52.8,52.3,30.11,South,175,0.0,4.0,98,0.00,,,0.00,Wunderground v.1.15,2013-05-09 06:25:00,
2013-05-09 02:35:00,52.8,52.3,30.11,SE,134,0.0,4.0,98,0.00,,,0.00,Wunderground v.1.15,2013-05-09 06:35:00,
2013-05-09 02:40:00,52.8,52.0,30.11,SW,218,0.0,4.0,97,0.00,,,0.00,Wunderground v.1.15,2013-05-09 06:40:00,
2013-05-09 02:45:00,52.8,52.3,30.11,SW,218,0.0,4.0,98,0.00,,,0.00,Wunderground v.1.15,2013-05-09 06:45:00,
2013-05-09 02:50:00,52.7,51.9,30.11,SSE,152,0.0,4.0,97,0.00,,,0.00,Wunderground v.1.15,2013-05-09 06:50:00,
2013-05-09 02:55:00,52.7,51.9,30.11,ENE,75,0.0,4.0,97,0.00,,,0.00,Wunderground v.1.15,2013-05-09 06:55:00,
2013-05-09 03:00:00,52.8,52.3,30.11,ENE,74,0.0,4.0,98,0.00,,,0.00,Wunderground v.1.15,2013-05-09 07:00:00,
2013-05-09 03:10:00,52.8,52.3,30.10,East,99,0.0,4.0,98,0.00,,,0.00,Wunderground v.1.15,2013-05-09 07:10:00,
2013-05-09 03:15:00,52.9,52.4,30.10,ENE,65,1.0,4.0,98,0.00,,,0.00,Wunderground v.1.15,2013-05-09 07:15:00,
2013-05-09 03:20:00,53.0,52.5,30.10,NE,40,1.0,4.0,98,0.00,,,0.00,Wunderground v.1.15,2013-05-09 07:20:00,
2013-05-09 03:25:00,53.1,52.6,30.10,NE,34,1.0,4.0,98,0.00,,,0.00,Wunderground v.1.15,2013-05-09 07:25:00,
2013-05-09 03:30:00,53.0,52.5,30.10,NE,34,1.0,1.0,98,0.00,,,0.00,Wunderground v.1.15,2013-05-09 07:30:00,
2013-05-09 03:40:00,53.0,52.5,30.09,NE,51,0.0,4.0,98,0.00,,,0.00,Wunderground v.1.15,2013-05-09 07:40:00,
2013-05-09 03:45:00,53.2,52.7,30.09,NNE,33,1.0,4.0,98,0.00,,,0.00,Wunderground v.1.15,2013-05-09 07:45:00,
2013-05-09 03:50:00,53.2,52.7,30.09,NE,41,1.0,1.0,98,0.00,,,0.00,Wunderground v.1.15,2013-05-09 07:50:00,
2013-05-09 03:55:00,53.2,52.7,30.09,NE,41,1.0,4.0,98,0.00,,,0.00,Wunderground v.1.15,2013-05-09 07:55:00,
2013-05-09 04:00:00,53.2,52.7,30.09,ENE,71,0.0,4.0,98,0.00,,,0.00,Wunderground v.1.15,2013-05-09 08:00:00,
2013-05-09 04:05:00,53.1,52.6,30.09,ENE,65,0.0,4.0,98,0.00,,,0.00,Wunderground v.1.15,2013-05-09 08:05:00,
2013-05-09 04:15:00,53.0,52.5,30.09,ENE,78,1.0,4.0,98,0.00,,,0.00,Wunderground v.1.15,2013-05-09 08:15:00,
2013-05-09 04:20:00,53.0,52.5,30.08,East,79,1.0,4.0,98,0.00,,,0.00,Wunderground v.1.15,2013-05-09 08:20:00,
2013-05-09 04:25:00,53.0,52.5,30.08,East,79,0.0,4.0,98,0.00,,,0.00,Wunderground v.1.15,2013-05-09 08:25:00,
2013-05-09 04:30:00,53.0,52.5,30.09,SSW,194,1.0,1.0,98,0.19,,,0.02,Wunderground v.1.15,2013-05-09 08:30:00,
2013-05-09 04:35:00,52.9,52.4,30.08,NE,36,1.0,4.0,98,0.75,,,0.04,Wunderground v.1.15,2013-05-09 08:35:00,
2013-05-09 04:45:00,53.0,52.5,30.07,ENE,76,1.0,4.0,98,0.12,,,0.14,Wunderground v.1.15,2013-05-09 08:45:00,
2013-05-09 04:50:00,52.9,52.4,30.07,NE,52,2.0,4.0,98,0.51,,,0.16,Wunderground v.1.15,2013-05-09 08:50:00,
2013-05-09 04:55:00,52.9,52.4,30.08,ENE,64,2.0,4.0,98,1.02,,,0.22,Wunderground v.1.15,2013-05-09 08:55:00,
2013-05-09 05:00:00,52.8,52.3,30.08,East,88,2.0,4.0,98,0.61,,,0.26,Wunderground v.1.15,2013-05-09 09:00:00,
2013-05-09 05:05:00,52.7,52.2,30.06,East,83,3.0,4.0,98,0.57,,,0.30,Wunderground v.1.15,2013-05-09 09:05:00,
2013-05-09 05:10:00,52.7,52.2,30.06,ENE,73,3.0,3.0,98,0.30,,,0.34,Wunderground v.1.15,2013-05-09 09:10:00,
2013-05-09 05:20:00,52.5,52.0,30.07,East,81,1.0,4.0,98,0.20,,,0.36,Wunderground v.1.15,2013-05-09 09:20:00,
2013-05-09 05:25:00,52.6,52.1,30.06,ENE,70,2.0,4.0,98,0.13,,,0.37,Wunderground v.1.15,2013-05-09 09:25:00,
2013-05-09 05:30:00,52.6,52.1,30.07,SE,132,2.0,2.0,98,0.14,,,0.39,Wunderground v.1.15,2013-05-09 09:30:00,
2013-05-09 05:35:00,52.6,52.1,30.07,SE,136,1.0,4.0,98,0.19,,,0.40,Wunderground v.1.15,2013-05-09 09:35:00,
2013-05-09 05:40:00,52.6,52.1,30.07,SE,135,1.0,1.0,98,0.27,,,0.41,Wunderground v.1.15,2013-05-09 09:40:00,
2013-05-09 05:50:00,52.6,52.1,30.06,ENE,76,2.0,4.0,98,0.25,,,0.44,Wunderground v.1.15,2013-05-09 09:50:00,
2013-05-09 05:55:00,52.6,52.1,30.07,ENE,74,3.0,4.0,98,0.23,,,0.46,Wunderground v.1.15,2013-05-09 09:55:00,
2013-05-09 06:00:00,52.5,52.0,30.06,ESE,113,2.0,6.0,98,0.11,,,0.47,Wunderground v.1.15,2013-05-09 10:00:00,
2013-05-09 06:10:00,52.6,52.1,30.06,NE,51,2.0,4.0,98,0.09,,,0.48,Wunderground v.1.15,2013-05-09 10:10:00,
2013-05-09 06:15:00,52.6,52.1,30.05,NNE,30,2.0,4.0,98,0.07,,,0.49,Wunderground v.1.15,2013-05-09 10:15:00,
2013-05-09 06:20:00,52.6,52.1,30.06,ESE,122,2.0,2.0,98,0.14,,,0.50,Wunderground v.1.15,2013-05-09 10:20:00,
2013-05-09 06:30:00,52.6,52.1,30.06,ENE,57,2.0,2.0,98,0.04,,,0.50,Wunderground v.1.15,2013-05-09 10:30:00,
2013-05-09 06:35:00,52.7,52.2,30.06,NE,36,2.0,3.0,98,0.00,,,0.50,Wunderground v.1.15,2013-05-09 10:35:00,
2013-05-09 06:40:00,52.8,52.3,30.07,NNW,348,1.0,4.0,98,0.00,,,0.50,Wunderground v.1.15,2013-05-09 10:40:00,
2013-05-09 06:45:00,52.8,52.3,30.07,WSW,258,1.0,4.0,98,0.00,,,0.50,Wunderground v.1.15,2013-05-09 10:45:00,
2013-05-09 06:50:00,52.7,52.2,30.07,WNW,293,1.0,4.0,98,0.00,,,0.50,Wunderground v.1.15,2013-05-09 10:50:00,
2013-05-09 07:00:00,52.6,52.1,30.07,South,171,1.0,1.0,98,0.00,,,0.51,Wunderground v.1.15,2013-05-09 11:00:00,
2013-05-09 07:05:00,52.6,52.1,30.07,SSE,157,1.0,4.0,98,0.00,,,0.51,Wunderground v.1.15,2013-05-09 11:05:00,
2013-05-09 07:10:00,52.6,52.1,30.07,SE,146,1.0,1.0,98,0.00,,,0.51,Wunderground v.1.15,2013-05-09 11:10:00,
2013-05-09 07:15:00,52.6,52.1,30.07,SE,146,0.0,4.0,98,0.00,,,0.51,Wunderground v.1.15,2013-05-09 11:15:00,
2013-05-09 07:20:00,52.7,52.2,30.07,SE,146,0.0,4.0,98,0.00,,,0.51,Wunderground v.1.15,2013-05-09 11:20:00,
2013-05-09 07:30:00,52.7,52.2,30.07,SE,146,0.0,4.0,98,0.00,,,0.51,Wunderground v.1.15,2013-05-09 11:30:00,
2013-05-09 07:35:00,52.8,52.3,30.07,SE,129,0.0,4.0,98,0.00,,,0.51,Wunderground v.1.15,2013-05-09 11:35:00,
2013-05-09 07:40:00,52.8,52.3,30.07,SE,129,1.0,4.0,98,0.00,,,0.51,Wunderground v.1.15,2013-05-09 11:40:00,
2013-05-09 07:45:00,52.9,52.4,30.07,ENE,63,1.0,4.0,98,0.00,,,0.51,Wunderground v.1.15,2013-05-09 11:45:00,
2013-05-09 07:50:00,53.0,52.5,30.08,ENE,63,1.0,1.0,98,0.00,,,0.51,Wunderground v.1.15,2013-05-09 11:50:00,
2013-05-09 07:55:00,53.0,52.5,30.08,East,83,1.0,4.0,98,0.00,,,0.51,Wunderground v.1.15,2013-05-09 11:55:00,
2013-05-09 08:05:00,52.9,52.4,30.08,ESE,114,1.0,4.0,98,0.00,,,0.51,Wunderground v.1.15,2013-05-09 12:05:00,
2013-05-09 08:10:00,52.9,52.4,30.08,East,85,1.0,1.0,98,0.00,,,0.51,Wunderground v.1.15,2013-05-09 12:10:00,
2013-05-09 08:15:00,52.9,52.4,30.08,ENE,78,1.0,4.0,98,0.00,,,0.51,Wunderground v.1.15,2013-05-09 12:15:00,
2013-05-09 08:20:00,52.9,52.4,30.08,ENE,74,1.0,1.0,98,0.00,,,0.51,Wunderground v.1.15,2013-05-09 12:20:00,
2013-05-09 08:25:00,53.1,52.8,30.07,ENE,63,1.0,2.0,99,0.00,,,0.51,Wunderground v.1.15,2013-05-09 12:25:00,
2013-05-09 08:35:00,53.4,52.8,30.07,East,80,1.0,4.0,98,0.00,,,0.51,Wunderground v.1.15,2013-05-09 12:35:00,
2013-05-09 08:40:00,53.5,53.2,30.07,ENE,65,1.0,4.0,99,0.00,,,0.51,Wunderground v.1.15,2013-05-09 12:40:00,
2013-05-09 08:45:00,53.7,53.4,30.07,ENE,75,1.0,4.0,99,0.00,,,0.51,Wunderground v.1.15,2013-05-09 12:45:00,
2013-05-09 08:50:00,53.9,53.6,30.07,ENE,59,1.0,4.0,99,0.00,,,0.51,Wunderground v.1.15,2013-05-09 12:50:00,
2013-05-09 08:55:00,53.9,53.6,30.07,East,91,1.0,4.0,99,0.00,,,0.51,Wunderground v.1.15,2013-05-09 12:55:00,
2013-05-09 09:00:00,54.1,53.8,30.06,ENE,72,1.0,4.0,99,0.00,,,0.51,Wunderground v.1.15,2013-05-09 13:00:00,
2013-05-09 09:10:00,54.6,54.3,30.05,NE,56,1.0,4.0,99,0.00,,,0.51,Wunderground v.1.15,2013-05-09 13:10:00,
2013-05-09 09:15:00,54.8,54.5,30.06,ESE,122,1.0,4.0,99,0.00,,,0.51,Wunderground v.1.15,2013-05-09 13:15:00,
2013-05-09 09:20:00,54.7,54.4,30.06,ENE,75,1.0,1.0,99,0.00,,,0.51,Wunderground v.1.15,2013-05-09 13:20:00,
2013-05-09 09:25:00,55.0,54.7,30.05,ENE,75,0.0,4.0,99,0.00,,,0.51,Wunderground v.1.15,2013-05-09 13:25:00,
2013-05-09 09:30:00,55.0,54.7,30.05,ENE,75,0.0,4.0,99,0.00,,,0.51,Wunderground v.1.15,2013-05-09 13:30:00,
2013-05-09 09:40:00,55.3,55.0,30.06,ESE,117,0.0,4.0,99,0.00,,,0.51,Wunderground v.1.15,2013-05-09 13:40:00,
2013-05-09 09:45:00,55.2,54.9,30.06,East,99,1.0,4.0,99,0.00,,,0.51,Wunderground v.1.15,2013-05-09 13:45:00,
2013-05-09 09:50:00,55.4,55.1,30.06,East,99,0.0,4.0,99,0.00,,,0.51,Wunderground v.1.15,2013-05-09 13:50:00,
2013-05-09 09:55:00,55.3,55.0,30.06,ESE,103,0.0,4.0,99,0.00,,,0.51,Wunderground v.1.15,2013-05-09 13:55:00,
2013-05-09 10:00:00,55.0,54.7,30.06,ESE,108,1.0,1.0,99,0.00,,,0.51,Wunderground v.1.15,2013-05-09 14:00:00,
2013-05-09 10:05:00,55.0,54.7,30.06,ESE,107,1.0,4.0,99,0.00,,,0.51,Wunderground v.1.15,2013-05-09 14:05:00,
2013-05-09 10:15:00,55.2,54.9,30.06,ESE,115,0.0,4.0,99,0.00,,,0.51,Wunderground v.1.15,2013-05-09 14:15:00,
2013-05-09 10:20:00,55.5,55.2,30.05,ESE,115,0.0,4.0,99,0.00,,,0.51,Wunderground v.1.15,2013-05-09 14:20:00,
2013-05-09 10:25:00,55.7,55.4,30.05,ESE,119,0.0,4.0,99,0.00,,,0.51,Wunderground v.1.15,2013-05-09 14:25:00,
2013-05-09 10:30:00,55.7,55.4,30.05,ESE,123,1.0,1.0,99,0.00,,,0.51,Wunderground v.1.15,2013-05-09 14:30:00,
2013-05-09 10:40:00,55.8,55.5,30.05,South,180,1.0,1.0,99,0.00,,,0.51,Wunderground v.1.15,2013-05-09 14:40:00,
2013-05-09 10:45:00,55.9,55.6,30.05,SSW,203,1.0,4.0,99,0.00,,,0.51,Wunderground v.1.15,2013-05-09 14:45:00,
2013-05-09 10:50:00,56.0,55.7,30.05,SW,217,1.0,1.0,99,0.00,,,0.51,Wunderground v.1.15,2013-05-09 14:50:00,
2013-05-09 11:00:00,56.2,55.9,30.04,South,169,1.0,1.0,99,0.00,,,0.51,Wunderground v.1.15,2013-05-09 15:00:00,
2013-05-09 11:05:00,55.8,55.5,30.04,SSW,210,1.0,4.0,99,0.00,,,0.51,Wunderground v.1.15,2013-05-09 15:05:00,
2013-05-09 11:10:00,55.8,55.5,30.04,South,182,1.0,1.0,99,0.00,,,0.51,Wunderground v.1.15,2013-05-09 15:10:00,
2013-05-09 11:15:00,55.7,55.4,30.04,SSW,195,1.0,2.0,99,0.00,,,0.51,Wunderground v.1.15,2013-05-09 15:15:00,
2013-05-09 11:20:00,55.5,55.2,30.04,South,190,2.0,4.0,99,0.00,,,0.51,Wunderground v.1.15,2013-05-09 15:20:00,
2013-05-09 11:25:00,55.5,55.2,30.04,South,175,2.0,4.0,99,0.00,,,0.51,Wunderground v.1.15,2013-05-09 15:25:00,
2013-05-09 11:30:00,55.7,55.4,30.04,SSW,197,1.0,4.0,99,0.00,,,0.51,Wunderground v.1.15,2013-05-09 15:30:00,
2013-05-09 11:35:00,55.4,55.1,30.04,South,190,2.0,4.0,99,0.00,,,0.51,Wunderground v.1.15,2013-05-09 15:35:00,
2013-05-09 11:40:00,55.4,55.1,30.03,SSW,203,2.0,4.0,99,0.00,,,0.51,Wunderground v.1.15,2013-05-09 15:40:00,
2013-05-09 11:45:00,55.3,55.0,30.03,SSW,193,1.0,4.0,99,0.00,,,0.51,Wunderground v.1.15,2013-05-09 15:45:00,
2013-05-09 11:55:00,55.5,55.2,30.03,ENE,66,1.0,4.0,99,0.00,,,0.51,Wunderground v.1.15,2013-05-09 15:55:00,
2013-05-09 12:00:00,55.5,55.2,30.03,ENE,65,1.0,1.0,99,0.00,,,0.51,Wunderground v.1.15,2013-05-09 16:00:00,
2013-05-09 12:05:00,55.8,55.5,30.03,ENE,66,1.0,4.0,99,0.00,,,0.51,Wunderground v.1.15,2013-05-09 16:05:00,
2013-05-09 12:10:00,56.2,55.9,30.03,ENE,66,0.0,4.0,99,0.00,,,0.51,Wunderground v.1.15,2013-05-09 16:10:00,
2013-05-09 12:15:00,56.3,56.0,30.03,ENE,65,0.0,4.0,99,0.00,,,0.51,Wunderground v.1.15,2013-05-09 16:15:00,
2013-05-09 12:25:00,56.2,55.9,30.03,ENE,65,0.0,4.0,99,0.00,,,0.51,Wunderground v.1.15,2013-05-09 16:25:00,
2013-05-09 12:30:00,56.3,56.0,30.03,ENE,65,0.0,4.0,99,0.00,,,0.51,Wunderground v.1.15,2013-05-09 16:30:00,
2013-05-09 12:35:00,56.8,56.5,30.03,ENE,66,0.0,4.0,99,0.00,,,0.51,Wunderground v.1.15,2013-05-09 16:35:00,
2013-05-09 12:40:00,56.9,56.6,30.03,ENE,69,0.0,4.0,99,0.00,,,0.51,Wunderground v.1.15,2013-05-09 16:40:00,
2013-05-09 12:45:00,57.0,56.7,30.02,ENE,69,0.0,4.0,99,0.00,,,0.51,Wunderground v.1.15,2013-05-09 16:45:00,
2013-05-09 12:50:00,57.2,56.9,30.03,ENE,72,0.0,4.0,99,0.00,,,0.51,Wunderground v.1.15,2013-05-09 16:50:00,
2013-05-09 13:00:00,57.0,56.7,30.03,ESE,120,1.0,1.0,99,0.00,,,0.51,Wunderground v.1.15,2013-05-09 17:00:00,
2013-05-09 13:05:00,56.4,55.8,30.03,East,92,1.0,4.0,98,0.00,,,0.51,Wunderground v.1.15,2013-05-09 17:05:00,
2013-05-09 13:10:00,55.7,55.1,30.02,East,90,2.0,4.0,98,0.00,,,0.51,Wunderground v.1.15,2013-05-09 17:10:00,
2013-05-09 13:15:00,55.4,54.8,30.02,ESE,105,2.0,4.0,98,0.00,,,0.51,Wunderground v.1.15,2013-05-09 17:15:00,
2013-05-09 13:20:00,55.1,54.5,30.02,East,88,1.0,1.0,98,0.00,,,0.51,Wunderground v.1.15,2013-05-09 17:20:00,
2013-05-09 13:30:00,54.9,54.3,30.02,East,83,2.0,2.0,98,0.00,,,0.51,Wunderground v.1.15,2013-05-09 17:30:00,
2013-05-09 13:35:00,54.9,54.3,30.02,East,92,2.0,4.0,98,0.00,,,0.51,Wunderground v.1.15,2013-05-09 17:35:00,
2013-05-09 13:40:00,55.3,54.7,30.01,ENE,65,2.0,4.0,98,0.00,,,0.51,Wunderground v.1.15,2013-05-09 17:40:00,
2013-05-09 13:45:00,55.4,55.1,30.01,ENE,73,1.0,5.0,99,0.00,,,0.51,Wunderground v.1.15,2013-05-09 17:45:00,
2013-05-09 13:50:00,55.3,54.7,30.01,ENE,61,2.0,2.0,98,0.00,,,0.51,Wunderground v.1.15,2013-05-09 17:50:00,
2013-05-09 13:55:00,55.2,54.6,30.01,ENE,75,2.0,3.0,98,0.00,,,0.51,Wunderground v.1.15,2013-05-09 17:55:00,
2013-05-09 14:00:00,55.1,54.5,30.01,ENE,67,2.0,4.0,98,0.00,,,0.51,Wunderground v.1.15,2013-05-09 18:00:00,
2013-05-09 14:10:00,55.3,54.7,30.00,East,100,1.0,1.0,98,0.00,,,0.51,Wunderground v.1.15,2013-05-09 18:10:00,
2013-05-09 14:15:00,55.4,54.8,30.00,ENE,65,1.0,4.0,98,0.00,,,0.51,Wunderground v.1.15,2013-05-09 18:15:00,
2013-05-09 14:20:00,55.6,55.0,30.00,East,86,2.0,4.0,98,0.00,,,0.51,Wunderground v.1.15,2013-05-09 18:20:00,
2013-05-09 14:25:00,55.5,54.9,30.00,ENE,74,2.0,4.0,98,0.00,,,0.51,Wunderground v.1.15,2013-05-09 18:25:00,
2013-05-09 14:35:00,55.6,55.0,29.99,ENE,65,2.0,4.0,98,0.00,,,0.51,Wunderground v.1.15,2013-05-09 18:35:00,
2013-05-09 14:40:00,55.6,55.0,29.99,East,79,2.0,2.0,98,0.00,,,0.51,Wunderground v.1.15,2013-05-09 18:40:00,
2013-05-09 14:45:00,55.4,54.8,29.99,ENE,77,3.0,4.0,98,0.00,,,0.51,Wunderground v.1.15,2013-05-09 18:45:00,
2013-05-09 14:50:00,55.5,54.9,29.99,ENE,57,3.0,3.0,98,0.00,,,0.51,Wunderground v.1.15,2013-05-09 18:50:00,
2013-05-09 14:55:00,55.2,54.4,29.99,ENE,76,3.0,6.0,97,0.00,,,0.51,Wunderground v.1.15,2013-05-09 18:55:00,
2013-05-09 15:00:00,54.9,54.1,29.99,East,90,3.0,4.0,97,0.00,,,0.51,Wunderground v.1.15,2013-05-09 19:00:00,
2013-05-09 15:05:00,54.8,54.0,29.99,East,84,3.0,4.0,97,0.00,,,0.51,Wunderground v.1.15,2013-05-09 19:05:00,
2013-05-09 15:10:00,54.6,53.8,29.99,ESE,109,2.0,2.0,97,0.00,,,0.51,Wunderground v.1.15,2013-05-09 19:10:00,
2013-05-09 15:15:00,54.5,53.7,29.99,SSE,161,1.0,4.0,97,0.00,,,0.51,Wunderground v.1.15,2013-05-09 19:15:00,
2013-05-09 15:20:00,54.6,54.0,29.99,SW,222,1.0,1.0,98,0.00,,,0.51,Wunderground v.1.15,2013-05-09 19:20:00,
2013-05-09 15:25:00,54.4,53.6,29.99,NNW,347,0.0,4.0,97,0.00,,,0.51,Wunderground v.1.15,2013-05-09 19:25:00,
2013-05-09 15:30:00,54.4,53.6,29.99,NNW,348,0.0,4.0,97,0.00,,,0.51,Wunderground v.1.15,2013-05-09 19:30:00,
2013-05-09 15:40:00,54.3,53.5,29.98,East,100,1.0,4.0,97,0.00,,,0.51,Wunderground v.1.15,2013-05-09 19:40:00,
2013-05-09 15:45:00,54.2,53.4,29.98,SE,146,1.0,4.0,97,0.00,,,0.51,Wunderground v.1.15,2013-05-09 19:45:00,
2013-05-09 15:50:00,54.2,53.4,29.98,South,170,1.0,4.0,97,0.00,,,0.51,Wunderground v.1.15,2013-05-09 19:50:00,
2013-05-09 15:55:00,54.2,53.4,29.98,ESE,103,1.0,4.0,97,0.00,,,0.51,Wunderground v.1.15,2013-05-09 19:55:00,
2013-05-09 16:00:00,54.2,53.4,29.98,SE,134,1.0,4.0,97,0.00,,,0.51,Wunderground v.1.15,2013-05-09 20:00:00,
2013-05-09 16:05:00,54.1,53.3,29.98,ESE,106,1.0,4.0,97,0.00,,,0.51,Wunderground v.1.15,2013-05-09 20:05:00,
2013-05-09 16:15:00,54.0,53.2,29.97,East,94,1.0,4.0,97,0.00,,,0.51,Wunderground v.1.15,2013-05-09 20:15:00,
2013-05-09 16:20:00,53.9,53.1,29.97,ENE,67,1.0,4.0,97,0.00,,,0.51,Wunderground v.1.15,2013-05-09 20:20:00,
2013-05-09 16:25:00,53.8,53.0,29.97,ESE,111,1.0,4.0,97,0.00,,,0.51,Wunderground v.1.15,2013-05-09 20:25:00,
2013-05-09 16:30:00,54.0,53.2,29.97,ESE,109,0.0,4.0,97,0.00,,,0.51,Wunderground v.1.15,2013-05-09 20:30:00,
2013-05-09 16:35:00,54.1,53.3,29.97,ESE,109,0.0,4.0,97,0.00,,,0.51,Wunderground v.1.15,2013-05-09 20:35:00,
2013-05-09 16:45:00,54.2,53.4,29.97,SE,142,0.0,4.0,97,0.00,,,0.51,Wunderground v.1.15,2013-05-09 20:45:00,
2013-05-09 16:50:00,54.2,53.4,29.97,SE,140,0.0,4.0,97,0.00,,,0.51,Wunderground v.1.15,2013-05-09 20:50:00,
2013-05-09 16:55:00,54.1,53.3,29.98,South,186,1.0,4.0,97,0.00,,,0.51,Wunderground v.1.15,2013-05-09 20:55:00,
2013-05-09 17:00:00,53.5,52.7,29.98,South,178,3.0,5.0,97,0.00,,,0.51,Wunderground v.1.15,2013-05-09 21:00:00,
2013-05-09 17:05:00,53.2,52.4,29.98,South,177,3.0,5.0,97,0.00,,,0.52,Wunderground v.1.15,2013-05-09 21:05:00,
2013-05-09 17:10:00,53.1,52.3,29.97,SE,135,2.0,2.0,97,0.16,,,0.53,Wunderground v.1.15,2013-05-09 21:10:00,
2013-05-09 17:20:00,53.1,52.3,29.96,East,101,1.0,4.0,97,0.06,,,0.54,Wunderground v.1.15,2013-05-09 21:20:00,
2013-05-09 17:25:00,52.9,52.1,29.95,NE,38,1.0,4.0,97,0.05,,,0.55,Wunderground v.1.15,2013-05-09 21:25:00,
2013-05-09 17:30:00,52.8,52.0,29.95,ENE,57,2.0,4.0,97,0.05,,,0.55,Wunderground v.1.15,2013-05-09 21:30:00,
2013-05-09 17:35:00,52.7,51.9,29.94,ESE,112,2.0,4.0,97,0.06,,,0.56,Wunderground v.1.15,2013-05-09 21:35:00,
2013-05-09 17:40:00,52.6,51.8,29.95,ESE,104,2.0,2.0,97,0.06,,,0.56,Wunderground v.1.15,2013-05-09 21:40:00,
2013-05-09 17:50:00,52.7,52.2,29.95,ESE,106,1.0,4.0,98,0.00,,,0.56,Wunderground v.1.15,2013-05-09 21:50:00,
2013-05-09 17:55:00,52.7,52.2,29.95,ESE,106,1.0,4.0,98,0.00,,,0.56,Wunderground v.1.15,2013-05-09 21:55:00,
2013-05-09 18:00:00,52.7,52.2,29.95,East,80,1.0,1.0,98,0.00,,,0.56,Wunderground v.1.15,2013-05-09 22:00:00,
2013-05-09 18:05:00,52.8,52.3,29.95,East,80,0.0,2.0,98,0.00,,,0.56,Wunderground v.1.15,2013-05-09 22:05:00,
2013-05-09 18:10:00,52.9,52.4,29.95,East,80,0.0,4.0,98,0.00,,,0.56,Wunderground v.1.15,2013-05-09 22:10:00,
2013-05-09 18:15:00,53.1,52.6,29.96,East,80,0.0,4.0,98,0.00,,,0.56,Wunderground v.1.15,2013-05-09 22:15:00,
2013-05-09 18:25:00,53.0,52.5,29.96,ESE,114,0.0,4.0,98,0.00,,,0.56,Wunderground v.1.15,2013-05-09 22:25:00,
2013-05-09 18:30:00,52.9,52.4,29.96,ESE,114,0.0,4.0,98,0.00,,,0.56,Wunderground v.1.15,2013-05-09 22:30:00,
2013-05-09 18:35:00,52.9,52.4,29.96,ESE,114,0.0,4.0,98,0.00,,,0.56,Wunderground v.1.15,2013-05-09 22:35:00,
2013-05-09 18:40:00,52.9,52.4,29.96,ESE,114,0.0,4.0,98,0.00,,,0.56,Wunderground v.1.15,2013-05-09 22:40:00,
2013-05-09 18:45:00,52.8,52.3,29.96,ESE,114,0.0,4.0,98,0.00,,,0.56,Wunderground v.1.15,2013-05-09 22:45:00,
2013-05-09 18:55:00,52.6,52.1,29.97,SSE,165,1.0,4.0,98,0.00,,,0.56,Wunderground v.1.15,2013-05-09 22:55:00,
2013-05-09 19:00:00,52.5,52.0,29.97,SSE,161,1.0,1.0,98,0.00,,,0.56,Wunderground v.1.15,2013-05-09 23:00:00,
2013-05-09 19:05:00,52.5,52.0,29.97,SSE,161,0.0,4.0,98,0.00,,,0.56,Wunderground v.1.15,2013-05-09 23:05:00,
2013-05-09 19:10:00,52.5,52.0,29.96,SSE,164,0.0,4.0,98,0.00,,,0.56,Wunderground v.1.15,2013-05-09 23:10:00,
2013-05-09 19:15:00,52.5,52.0,29.97,SSE,164,0.0,4.0,98,0.00,,,0.56,Wunderground v.1.15,2013-05-09 23:15:00,
2013-05-09 19:20:00,52.5,52.0,29.97,SSE,149,0.0,4.0,98,0.00,,,0.56,Wunderground v.1.15,2013-05-09 23:20:00,
2013-05-09 19:30:00,52.4,51.9,29.97,South,175,1.0,4.0,98,0.00,,,0.56,Wunderground v.1.15,2013-05-09 23:30:00,
2013-05-09 19:35:00,52.2,51.7,29.97,South,175,1.0,4.0,98,0.00,,,0.56,Wunderground v.1.15,2013-05-09 23:35:00,
2013-05-09 19:40:00,52.3,51.8,29.97,South,175,0.0,4.0,98,0.00,,,0.56,Wunderground v.1.15,2013-05-09 23:40:00,
2013-05-09 19:45:00,52.3,51.8,29.97,South,175,0.0,4.0,98,0.00,,,0.56,Wunderground v.1.15,2013-05-09 23:45:00,
2013-05-09 19:50:00,52.2,51.7,29.97,South,175,0.0,4.0,98,0.00,,,0.56,Wunderground v.1.15,2013-05-09 23:50:00,
2013-05-09 20:00:00,52.1,51.8,29.97,South,176,0.0,4.0,99,0.00,,,0.56,Wunderground v.1.15,2013-05-10 00:00:00,
2013-05-09 20:05:00,52.1,51.6,29.97,South,179,0.0,4.0,98,0.00,,,0.56,Wunderground v.1.15,2013-05-10 00:05:00,
2013-05-09 20:10:00,52.0,51.5,29.98,SW,230,1.0,4.0,98,0.00,,,0.56,Wunderground v.1.15,2013-05-10 00:10:00,
2013-05-09 20:15:00,51.8,51.3,29.98,South,173,2.0,4.0,98,0.00,,,0.56,Wunderground v.1.15,2013-05-10 00:15:00,
2013-05-09 20:20:00,51.7,51.2,29.98,SSW,192,2.0,4.0,98,0.00,,,0.56,Wunderground v.1.15,2013-05-10 00:20:00,
2013-05-09 20:25:00,51.6,51.1,29.98,SSW,193,1.0,4.0,98,0.00,,,0.56,Wunderground v.1.15,2013-05-10 00:25:00,
2013-05-09 20:35:00,51.5,51.0,29.98,SSW,193,0.0,4.0,98,0.00,,,0.56,Wunderground v.1.15,2013-05-10 00:35:00,
2013-05-09 20:40:00,51.5,51.2,29.98,SSW,193,0.0,4.0,99,0.00,,,0.56,Wunderground v.1.15,2013-05-10 00:40:00,
2013-05-09 20:45:00,51.4,51.1,29.98,SSW,193,0.0,4.0,99,0.00,,,0.56,Wunderground v.1.15,2013-05-10 00:45:00,
2013-05-09 20:50:00,51.4,51.1,29.98,SSW,192,1.0,4.0,99,0.00,,,0.56,Wunderground v.1.15,2013-05-10 00:50:00,
2013-05-09 20:55:00,51.3,50.8,29.98,SSW,193,2.0,4.0,98,0.00,,,0.56,Wunderground v.1.15,2013-05-10 00:55:00,
2013-05-09 21:05:00,51.2,50.9,29.98,SSW,193,1.0,2.0,99,0.00,,,0.56,Wunderground v.1.15,2013-05-10 01:05:00,
2013-05-09 21:10:00,51.2,50.9,29.98,SSW,193,1.0,1.0,99,0.00,,,0.56,Wunderground v.1.15,2013-05-10 01:10:00,
2013-05-09 21:15:00,51.1,50.8,29.98,SSW,193,0.0,4.0,99,0.00,,,0.56,Wunderground v.1.15,2013-05-10 01:15:00,
2013-05-09 21:20:00,51.1,50.8,29.98,SSW,192,0.0,4.0,99,0.00,,,0.56,Wunderground v.1.15,2013-05-10 01:20:00,
2013-05-09 21:25:00,51.0,50.7,29.98,SSW,193,0.0,4.0,99,0.00,,,0.56,Wunderground v.1.15,2013-05-10 01:25:00,
2013-05-09 21:30:00,51.0,50.7,29.98,SSW,193,0.0,4.0,99,0.00,,,0.56,Wunderground v.1.15,2013-05-10 01:30:00,
2013-05-09 21:40:00,51.0,50.7,29.98,SSW,198,1.0,1.0,99,0.00,,,0.56,Wunderground v.1.15,2013-05-10 01:40:00,
2013-05-09 21:45:00,51.0,50.7,29.97,SSW,198,1.0,4.0,99,0.00,,,0.56,Wunderground v.1.15,2013-05-10 01:45:00,
2013-05-09 21:50:00,51.0,50.7,29.97,SSW,198,0.0,4.0,99,0.00,,,0.56,Wunderground v.1.15,2013-05-10 01:50:00,
2013-05-09 21:55:00,51.1,50.8,29.98,SSW,198,0.0,4.0,99,0.00,,,0.56,Wunderground v.1.15,2013-05-10 01:55:00,
2013-05-09 22:00:00,51.2,50.9,29.97,WSW,250,0.0,4.0,99,0.00,,,0.56,Wunderground v.1.15,2013-05-10 02:00:00,
2013-05-09 22:10:00,51.2,50.9,29.98,WSW,246,1.0,4.0,99,0.00,,,0.56,Wunderground v.1.15,2013-05-10 02:10:00,
2013-05-09 22:15:00,51.2,50.9,29.98,WSW,244,1.0,4.0,99,0.00,,,0.56,Wunderground v.1.15,2013-05-10 02:15:00,
2013-05-09 22:20:00,51.1,50.8,29.98,WSW,244,1.0,1.0,99,0.00,,,0.56,Wunderground v.1.15,2013-05-10 02:20:00,
2013-05-09 22:25:00,51.1,50.8,29.97,WSW,244,0.0,4.0,99,0.00,,,0.56,Wunderground v.1.15,2013-05-10 02:25:00,
2013-05-09 22:30:00,51.1,50.8,29.97,WSW,244,0.0,4.0,99,0.00,,,0.56,Wunderground v.1.15,2013-05-10 02:30:00,
2013-05-09 22:35:00,51.1,50.8,29.97,WSW,244,0.0,4.0,99,0.00,,,0.56,Wunderground v.1.15,2013-05-10 02:35:00,
2013-05-09 22:45:00,51.2,50.9,29.97,WSW,244,0.0,4.0,99,0.00,,,0.56,Wunderground v.1.15,2013-05-10 02:45:00,
2013-05-09 22:50:00,51.3,51.0,29.97,WSW,244,0.0,4.0,99,0.00,,,0.56,Wunderground v.1.15,2013-05-10 02:50:00,
2013-05-09 22:55:00,51.4,51.1,29.96,WSW,244,0.0,4.0,99,0.00,,,0.56,Wunderground v.1.15,2013-05-10 02:55:00,
2013-05-09 23:00:00,51.5,51.2,29.97,North,355,0.0,4.0,99,0.00,,,0.56,Wunderground v.1.15,2013-05-10 03:00:00,
2013-05-09 23:05:00,51.6,51.3,29.96,NE,36,2.0,4.0,99,0.00,,,0.56,Wunderground v.1.15,2013-05-10 03:05:00,
2013-05-09 23:15:00,51.7,51.4,29.96,NNE,18,3.0,4.0,99,0.00,,,0.56,Wunderground v.1.15,2013-05-10 03:15:00,
2013-05-09 23:20:00,51.4,51.1,29.96,NE,40,4.0,4.0,99,0.00,,,0.56,Wunderground v.1.15,2013-05-10 03:20:00,
2013-05-09 23:25:00,51.5,51.2,29.96,NNE,30,3.0,4.0,99,0.00,,,0.56,Wunderground v.1.15,2013-05-10 03:25:00,
2013-05-09 23:30:00,51.6,51.3,29.96,NNE,17,3.0,4.0,99,0.00,,,0.56,Wunderground v.1.15,2013-05-10 03:30:00,
2013-05-09 23:35:00,51.5,51.2,29.96,NNE,32,3.0,4.0,99,0.00,,,0.56,Wunderground v.1.15,2013-05-10 03:35:00,
2013-05-09 23:40:00,51.5,51.2,29.96,NNE,32,2.0,2.0,99,0.00,,,0.56,Wunderground v.1.15,2013-05-10 03:40:00,
2013-05-09 23:50:00,51.5,51.2,29.96,NE,49,0.0,4.0,99,0.00,,,0.56,Wunderground v.1.15,2013-05-10 03:50:00,
2013-05-09 23:55:00,51.4,51.1,29.97,ENE,57,0.0,4.0,99,0.00,,,0.56,Wunderground v.1.15,2013-05-10 03:55:00,